Regional Weather Roundup
Issued by NWS Mobile, AL

Home | Current Version | Previous Version | Text Only | Print | Product List | Glossary On
Versions: 1 2 3 4 5 6 7 8 9 10 11 12 13 14 15 16 17 18 19 20 21 22 23 24 25 26 27 28 29 30 31 32 33 34 35 36 37 38 39 40 41 42 43 44 45 46 47 48 49 50
000
ASUS44 KMOB 270613
RWRMOB
REGIONAL WEATHER ROUNDUP
NATIONAL WEATHER SERVICE MOBILE AL
100 AM CDT TUE JUN 27 2017

NOTE: "FAIR" INDICATES FEW OR NO CLOUDS BELOW 12,000 FEET WITH NO
      SIGNIFICANT WEATHER AND/OR OBSTRUCTIONS TO VISIBILITY.

  * THESE STATIONS ARE PART OF THE UNIVERSITY OF SOUTH ALABAMA
    MESONET AND ARE NOT UNDER NWS OR FAA QUALITY CONTROL.

ALZ061>064-270700-
COASTAL ALABAMA

CITY           SKY/WX    TMP DP  RH WIND       PRES   REMARKS
MOBILE REG APT PTCLDY    73  62  68 CALM      30.04F
6HR MIN TEMP:  70; 6HR MAX TEMP:  83;

BROOKLEY FIELD CLOUDY    74  66  76 NW6       30.04F
6HR MIN TEMP:  74; 6HR MAX TEMP:  84;

USA CAMPUS*    NOT AVBL
DOG RIVER*     NOT AVBL


CITY           SKY/WX    TMP DP  RH WIND       PRES   REMARKS
GULF SHORES    PTCLDY    73  67  83 N3        30.02F

$$

ALZ051>060-270700-
INTERIOR SOUTHWEST AND SOUTH CENTRAL ALABAMA

CITY           SKY/WX    TMP DP  RH WIND       PRES   REMARKS
GREENVILLE     CLOUDY    70  63  78 N3        30.04F
6HR MIN TEMP:  69; 6HR MAX TEMP:  84;

EVERGREEN      CLOUDY    68  65  90 CALM      30.05F
6HR MIN TEMP:  68; 6HR MAX TEMP:  83;

ATMORE*        NOT AVBL
ANDALUSIA/OPP  CLOUDY    75  67  76 CALM      30.03F
6HR MIN TEMP:  75; 6HR MAX TEMP:  87;

ANDALUSIA*     NOT AVBL
FLORALA APT    PTCLDY    74  68  81 N3        30.05S
6HR MIN TEMP:  71; 6HR MAX TEMP:  86; 6HR PCP: TRACE;

FLORALA*       NOT AVBL

$$

FLZ001>006-270700-
WESTERN FLORIDA PANHANDLE

CITY           SKY/WX    TMP DP  RH WIND       PRES   REMARKS
PENSACOLA      CLOUDY    78  64  61 N5        30.01F
6HR MIN TEMP:  78; 6HR MAX TEMP:  88; 6HR PCP: TRACE;

NAS PENSACOLA  PTCLDY    72  66  81 N5        30.01F
6HR MIN TEMP:  72; 6HR MAX TEMP:  86;

MILTON         CLOUDY    73  67  81 N3        30.02F
6HR MIN TEMP:  71; 6HR MAX TEMP:  81;

WHTNG S FIELD  CLOUDY    75  68  78 CALM      30.02F
6HR MIN TEMP:  73; 6HR MAX TEMP:  85;



CITY           SKY/WX    TMP DP  RH WIND       PRES   REMARKS
JAY*           NOT AVBL
DUKE FIELD     PTCLDY    71  67  88 N5        30.01F
CRESTVIEW      CLOUDY    71  67  87 CALM      30.03F
6HR MIN TEMP:  71; 6HR MAX TEMP:  86;

VALPARAISO     PTCLDY    75  66  73 N6        30.00F
6HR MIN TEMP:  75; 6HR MAX TEMP:  87;

DESTIN         MOCLDY    80  77  90 N3        30.00F
6HR MIN TEMP:  80; 6HR MAX TEMP:  86;


$$

MSZ076-079-270700-
INTERIOR SOUTHEAST MISSISSIPPI

CITY           SKY/WX    TMP DP  RH WIND       PRES   REMARKS
LEAKESVILLE*   NOT AVBL
AGRICOLA*      NOT AVBL

$$

MARINE OBSERVATIONS

STATION/POSITION TIME  TEMP    WIND        PRES    WAVE
                       AIR SEA DIR/SP/G            HT/PER
                 (UTC) (F)     (DEG/KT/KT) (MB)    (FT/S)
PASCAGOULA       0548   78      10/  4/  5 1016.7F
PETIT BOIS ISLND 0548   79      20/  7/  8 1017.4F
GRAND BAY        0430   77      10/  4     1018.0S
KATRINA CUT      0530   79      10/  7     1016.6F
CEDAR POINT      0530   76      20/  5     1016.9F
E DAUPHIN ISLAND 0500   82      10/  8/  9 1017.0R
MIDDLE BAY LIGHT 0530   80     360/ 10     1016.6F
USCG MOBILE BAY  0548   76 80  340/  4/  6 1017.5F
STATE DOCKS      0548   77 80              1016.9F
MEAHER PARK      0530   75     350/  3     1016.6F
FORT MORGAN      0548   80      30/  7/  8   N/A
12 S ORANGE BCH  0450   82 82   10/  8/ 10 1016.5F   1
PENSACOLA BAY    0548   79 82              1016.5F
64 S DAUPHIN ISL 0550   82 84   10/  4/  4 1016.5F   1/ 6
67 S FORT MORGAN 0530   81      30/  4     1016.3F

$$

SELECTED LOCATIONS ACROSS THE REGION

CITY           SKY/WX    TMP DP  RH WIND       PRES   REMARKS
NEW ORLEANS    CLOUDY    79  72  79 SE5       30.03S
GULFPORT       MOCLDY    74  68  81 CALM      30.02F
PASCAGOULA AP  CLOUDY    71  68  90 CALM      30.03F
PASCAGOULA*    NOT AVBL
HATTIESBURG    CLOUDY    68  66  93 CALM      30.06F
LAUREL         CLOUDY    66  63  88 CALM      30.08F
MERIDIAN       PTCLDY    68  66  93 CALM      30.07F
JACKSON        PTCLDY    68  64  87 CALM      30.07F
MONTGOMERY     PTCLDY    72  61  68 CALM      30.05F
TROY           MOCLDY    68  68 100 CALM      30.06F
ASHFORD*       NOT AVBL
DOTHAN         CLEAR     73  71  93 N5        30.06F
PANAMA CITY    MOCLDY    75  70  84 CALM      29.99F

$$




USA.gov is the U.S. government's official web portal to all federal, state and local government web resources and services.